South Haven, MI

12:26 AM EDT on May 30, 2017 (GMT -0400)
South Haven

Weather History for KLWA - February, 2013

Change the Weather History Date:

Thursday, February 14, 2013

  Actual Average (KBEH) Record (KBEH)
Temperature  
Mean Temperature 34 °F -  
Max Temperature 40 °F 34 °F 58 °F (1954)
Min Temperature 27 °F 20 °F 3 °F (1970)
Degree Days  
Heating Degree Days 32    
Moisture  
Dew Point 31 °F    
Average Humidity 85    
Maximum Humidity 96    
Minimum Humidity 72    
Precipitation  
Precipitation 0.00 in - - ()
Sea Level Pressure  
Sea Level Pressure 29.74 in    
Wind  
Wind Speed 8 mph (SW)    
Max Wind Speed 22 mph    
Max Gust Speed 31 mph    
Visibility 8 miles    
Events Rain , Snow    
Averages and records for this station are not official NWS values.
T = Trace of Precipitation, MM = Missing Value Source: NWS Daily Summary

Daily Weather History Graph

Daily Weather History Graph

Search for Another Location

Airport or City:

Trip Planner

Search our weather history database for the weather conditions in past years. The results will help you decide how hot, cold, wet, or windy it might be!

Date:

Astronomy

Feb. 14, 2013 Rise Set
Actual Time 7:42 AM EST 6:16 PM EST
Civil Twilight 7:13 AM EST 6:45 PM EST
Nautical Twilight 6:40 AM EST 7:18 PM EST
Astronomical Twilight 6:08 AM EST 7:50 PM EST
Moon 9:37 AM EST (2/14) 11:26 PM EST (2/14)
Length of Visible Light 11h 31m
Length of Day
10h 33m
Waxing Crescent, 21% of the Moon is Illuminated
Feb 14
Waxing Crescent
Feb 17
First Quarter
Feb 25
Full
Mar 4
Last Quarter
Mar 11
New

Hourly Weather History & Observations

Time (EST) Temp. Windchill Dew Point Humidity Pressure Visibility Wind Dir Wind Speed Gust Speed Precip Events Conditions
12:14 AM 27.7 °F - 26.6 °F 96% 29.74 in 3.0 mi Calm Calm - N/A   Clear
12:35 AM 30.2 °F 26.7 °F 29.3 °F 96% 29.74 in 4.0 mi SSW 3.5 mph - N/A   Mostly Cloudy
12:54 AM 29.8 °F - 28.8 °F 96% 29.74 in 3.0 mi Calm Calm - N/A   Overcast
1:15 AM 31.1 °F 27.7 °F 30.2 °F 96% 29.74 in 3.0 mi South 3.5 mph - N/A   Overcast
1:35 AM 31.6 °F - 30.6 °F 96% 29.74 in 3.0 mi Calm Calm - N/A   Overcast
1:55 AM 32.0 °F - 30.9 °F 96% 29.74 in 4.0 mi Calm Calm - N/A   Mostly Cloudy
2:15 AM 32.5 °F 27.1 °F 31.6 °F 96% 29.74 in 4.0 mi SSW 5.8 mph - N/A   Overcast
2:35 AM 33.1 °F 28.7 °F 31.8 °F 95% 29.73 in 4.0 mi South 4.6 mph - N/A   Scattered Clouds
2:55 AM 32.0 °F 28.7 °F 30.4 °F 94% 29.73 in 4.0 mi South 3.5 mph - N/A   Mostly Cloudy
3:15 AM 32.2 °F 28.9 °F 30.9 °F 95% 29.73 in 4.0 mi South 3.5 mph - N/A   Overcast
3:35 AM 32.5 °F - 30.7 °F 93% 29.72 in 5.0 mi Calm Calm - N/A   Scattered Clouds
3:54 AM 32.2 °F 28.9 °F 30.2 °F 92% 29.72 in 5.0 mi South 3.5 mph - N/A   Scattered Clouds
4:15 AM 32.9 °F 28.5 °F 30.2 °F 90% 29.72 in 7.0 mi South 4.6 mph - N/A   Mostly Cloudy
4:35 AM 33.4 °F 28.1 °F 30.6 °F 89% 29.71 in 7.0 mi South 5.8 mph - N/A   Overcast
4:54 AM 33.1 °F 27.7 °F 30.7 °F 91% 29.71 in 7.0 mi South 5.8 mph - N/A   Overcast
5:15 AM 33.1 °F 27.7 °F 30.6 °F 90% 29.71 in 7.0 mi South 5.8 mph - N/A   Overcast
5:35 AM 33.1 °F 26.9 °F 30.7 °F 91% 29.70 in 7.0 mi South 6.9 mph - N/A   Mostly Cloudy
5:55 AM 33.8 °F 27.7 °F 30.7 °F 89% 29.69 in 7.0 mi South 6.9 mph - N/A   Mostly Cloudy
6:15 AM 34.0 °F 28.8 °F 30.9 °F 89% 29.69 in 7.0 mi South 5.8 mph - N/A   Overcast
6:34 AM 34.0 °F 28.8 °F 31.1 °F 89% 29.68 in 7.0 mi SSE 5.8 mph - N/A   Overcast
7:15 AM 34.9 °F 28.3 °F 31.8 °F 89% 29.67 in 7.0 mi South 8.1 mph - N/A   Overcast
7:34 AM 35.4 °F 29.7 °F 31.6 °F 86% 29.66 in 10.0 mi South 6.9 mph - N/A   Overcast
7:55 AM 35.6 °F 29.2 °F 31.5 °F 85% 29.66 in 10.0 mi South 8.1 mph - N/A   Overcast
8:14 AM 35.8 °F 28.3 °F 31.1 °F 83% 29.65 in 10.0 mi South 10.4 mph - N/A   Overcast
8:35 AM 36.5 °F 28.7 °F 31.1 °F 81% 29.65 in 10.0 mi South 11.5 mph 16.1 mph N/A   Overcast
8:54 AM 37.0 °F 29.8 °F 31.1 °F 79% 29.65 in 10.0 mi South 10.4 mph 16.1 mph N/A   Overcast
9:14 AM 38.1 °F 31.2 °F 31.1 °F 76% 29.65 in 10.0 mi SSW 10.4 mph 19.6 mph N/A   Overcast
9:35 AM 38.5 °F 29.9 °F 31.3 °F 75% 29.65 in 10.0 mi SSW 15.0 mph 23.0 mph N/A   Mostly Cloudy
9:55 AM 39.2 °F 32.5 °F 31.6 °F 74% 29.65 in 10.0 mi SSW 10.4 mph 20.7 mph N/A   Scattered Clouds
10:14 AM 39.6 °F 31.7 °F 31.8 °F 74% 29.65 in 10.0 mi SW 13.8 mph 20.7 mph N/A   Scattered Clouds
10:35 AM 40.1 °F 30.7 °F 31.8 °F 72% 29.65 in 10.0 mi SSW 19.6 mph 27.6 mph N/A   Scattered Clouds
10:55 AM 39.2 °F 30.2 °F 32.0 °F 75% 29.65 in 10.0 mi SW 17.3 mph 28.8 mph N/A   Mostly Cloudy
11:14 AM 39.2 °F 30.2 °F 31.8 °F 75% 29.65 in 10.0 mi SW 17.3 mph 31.1 mph N/A   Overcast
11:35 AM 39.4 °F 29.2 °F 32.0 °F 75% 29.65 in 10.0 mi SW 21.9 mph 27.6 mph N/A   Overcast
11:55 AM 39.2 °F 29.8 °F 32.0 °F 75% 29.66 in 10.0 mi SW 18.4 mph 25.3 mph N/A   Overcast
12:14 PM 38.7 °F 30.9 °F 32.2 °F 78% 29.66 in 10.0 mi SW 12.7 mph 21.9 mph N/A   Overcast
12:34 PM 38.5 °F 29.2 °F 32.2 °F 78% 29.66 in 10.0 mi SW 17.3 mph 24.2 mph N/A   Overcast
12:55 PM 37.9 °F 29.2 °F 32.4 °F 80% 29.66 in 10.0 mi SW 15.0 mph 21.9 mph N/A   Overcast
1:15 PM 37.6 °F 30.0 °F 32.7 °F 83% 29.66 in 10.0 mi WSW 11.5 mph 16.1 mph N/A   Overcast
1:35 PM 37.4 °F 28.9 °F 32.4 °F 82% 29.66 in 10.0 mi SW 13.8 mph 20.7 mph N/A   Overcast
1:54 PM 36.1 °F 27.3 °F 33.4 °F 90% 29.67 in 1.8 mi WSW 13.8 mph 27.6 mph N/A   Drizzle
2:15 PM 35.8 °F 26.9 °F 33.1 °F 90% 29.67 in 3.0 mi WSW 13.8 mph 24.2 mph N/A Rain Light Rain
2:34 PM 37.0 °F 29.3 °F 33.4 °F 87% 29.67 in 7.0 mi WSW 11.5 mph 25.3 mph N/A   Light Drizzle
2:55 PM 37.0 °F 28.1 °F 32.2 °F 83% 29.68 in 10.0 mi WSW 15.0 mph 23.0 mph N/A   Overcast
3:15 PM 37.0 °F 28.1 °F 32.0 °F 82% 29.69 in 10.0 mi WSW 15.0 mph 21.9 mph N/A   Overcast
3:35 PM 37.4 °F 27.8 °F 32.0 °F 81% 29.69 in 10.0 mi WSW 17.3 mph 24.2 mph N/A   Overcast
3:55 PM 37.4 °F 28.5 °F 32.0 °F 81% 29.70 in 10.0 mi WSW 15.0 mph 23.0 mph N/A   Overcast
4:14 PM 37.0 °F 27.0 °F 31.8 °F 81% 29.72 in 10.0 mi West 18.4 mph 26.5 mph N/A   Overcast
4:35 PM 36.3 °F 27.5 °F 31.3 °F 82% 29.74 in 10.0 mi West 13.8 mph 25.3 mph N/A   Overcast
4:54 PM 36.0 °F 28.0 °F 31.1 °F 82% 29.75 in 10.0 mi West 11.5 mph 18.4 mph N/A   Overcast
5:15 PM 36.0 °F 26.0 °F 30.9 °F 82% 29.77 in 10.0 mi West 17.3 mph 25.3 mph N/A   Overcast
5:35 PM 35.8 °F 27.8 °F 30.7 °F 82% 29.79 in 10.0 mi West 11.5 mph 25.3 mph N/A   Overcast
5:55 PM 35.8 °F 26.5 °F 30.2 °F 80% 29.80 in 10.0 mi WNW 15.0 mph 26.5 mph N/A   Overcast
6:14 PM 35.2 °F 25.4 °F 29.1 °F 78% 29.81 in 10.0 mi WNW 16.1 mph 25.3 mph N/A   Overcast
6:35 PM 34.9 °F 25.3 °F 29.8 °F 82% 29.83 in 10.0 mi West 15.0 mph 23.0 mph N/A   Overcast
6:54 PM 34.9 °F 25.7 °F 29.3 °F 80% 29.84 in 10.0 mi WNW 13.8 mph 24.2 mph N/A   Overcast
7:15 PM 34.7 °F 25.5 °F 30.0 °F 83% 29.85 in 10.0 mi West 13.8 mph 24.2 mph N/A   Overcast
7:35 PM 34.5 °F 24.8 °F 29.8 °F 83% 29.86 in 10.0 mi West 15.0 mph 26.5 mph N/A Snow Light Snow
7:55 PM 34.0 °F 24.6 °F 29.8 °F 85% 29.87 in 5.0 mi West 13.8 mph 25.3 mph N/A Snow Light Snow
8:14 PM 33.4 °F 23.9 °F 30.0 °F 87% 29.88 in 4.0 mi WNW 13.8 mph 26.5 mph N/A Snow Light Snow
8:35 PM 33.3 °F 25.1 °F 30.4 °F 89% 29.88 in 5.0 mi WNW 10.4 mph 20.7 mph N/A Snow Light Snow
8:55 PM 33.3 °F 24.1 °F 30.2 °F 89% 29.88 in 7.0 mi WNW 12.7 mph 20.7 mph N/A Snow Light Snow
9:15 PM 33.3 °F 25.1 °F 30.6 °F 90% 29.89 in 7.0 mi WNW 10.4 mph 20.7 mph N/A Snow Light Snow
9:35 PM 33.4 °F 24.3 °F 29.5 °F 85% 29.89 in 10.0 mi WNW 12.7 mph 23.0 mph N/A Snow Light Snow
9:55 PM 33.4 °F 25.4 °F 29.1 °F 84% 29.90 in 10.0 mi WNW 10.4 mph 19.6 mph N/A   Overcast
10:15 PM 33.4 °F 24.8 °F 29.1 °F 84% 29.91 in 10.0 mi WNW 11.5 mph 20.7 mph N/A Snow Light Snow
10:35 PM 33.4 °F 24.8 °F 28.8 °F 83% 29.91 in 10.0 mi WNW 11.5 mph 19.6 mph N/A   Light Drizzle
10:55 PM 33.8 °F 24.8 °F 28.2 °F 80% 29.91 in 10.0 mi WNW 12.7 mph 19.6 mph N/A   Overcast
11:15 PM 33.8 °F 25.8 °F 27.7 °F 78% 29.92 in 10.0 mi WNW 10.4 mph 20.7 mph N/A   Overcast
11:34 PM 33.8 °F 24.3 °F 27.3 °F 77% 29.92 in 10.0 mi WNW 13.8 mph 19.6 mph N/A   Overcast
11:55 PM 33.8 °F 25.3 °F 27.3 °F 77% 29.92 in 10.0 mi WNW 11.5 mph 17.3 mph N/A   Overcast